Theta_e
303 304 303 302 302 303 304 308 308 308 308 309 307 309 312 311 307 306 307 307 307 309 316 316 315 315 314 314 313 312 312 314 316 322 324 325 327 328 328 326 324 324 326 327
306 305 304 303 304 303 303 304 306 306 306 307 309 308 308 307 307 307 308 308 309 316 315 314 313 312 311 311 310 309 311 313 314 319 323 324 326 328 326 324 323 323 323 323
304 303 303 303 303 303 302 303 304 305 305 307 306 308 309 309 309 309 308 312 314 313 312 311 310 309 308 308 306 307 308 312 313 316 321 323 324 326 325 323 323 322 322 322
305 304 304 304 305 306 303 303 304 304 304 307 308 308 309 311 311 311 312 311 310 309 308 308 307 306 305 305 304 305 307 310 312 315 318 323 324 325 324 323 324 322 322 323
305 303 303 304 307 306 305 305 309 309 308 306 306 306 308 306 305 305 305 305 304 304 304 303 302 301 302 302 300 304 307 310 313 313 317 321 323 325 324 323 323 322 321 321
305 307 304 306 303 305 307 305 307 307 305 304 303 307 307 302 301 302 302 301 301 301 300 299 297 298 299 300 300 302 305 309 312 313 315 319 318 324 324 323 322 321 322 321
308 307 307 302 303 304 308 306 306 305 303 301 303 302 301 301 300 299 299 299 299 299 299 297 295 295 298 299 297 300 304 306 311 313 314 314 316 323 324 322 321 321 321 321
305 304 304 299 301 302 299 299 299 300 300 302 301 300 299 298 297 297 297 297 297 297 297 296 294 292 294 297 295 297 301 304 309 310 312 314 315 323 323 322 321 320 319 319
304 303 301 298 297 297 297 297 298 299 300 300 299 298 298 297 297 296 295 294 294 294 294 293 292 289 290 294 292 296 299 301 305 307 307 311 314 322 322 320 320 319 318 317
302 302 299 299 298 297 297 297 297 298 298 298 298 296 296 295 294 293 292 291 290 290 290 289 288 288 289 290 292 294 296 298 299 300 304 306 306 302 320 320 318 319 317 315
302 301 298 299 297 296 297 297 296 297 297 296 295 295 294 293 291 290 289 288 287 286 286 286 285 287 288 289 291 292 294 295 295 297 299 301 302 299 301 316 314 319 317 316
301 299 298 298 297 296 296 296 296 295 295 294 293 293 292 290 288 287 286 285 285 284 284 284 284 285 286 287 289 289 292 293 293 294 295 296 299 299 295 300 305 305 309 310
298 297 297 297 296 295 295 295 296 294 293 292 291 290 289 288 286 286 286 284 284 283 283 283 284 285 286 287 287 288 289 290 291 291 292 291 291 296 292 288 294 295 294 294
296 296 296 296 296 295 295 294 294 293 292 291 290 289 287 287 285 285 285 284 284 283 283 283 283 283 284 285 285 287 287 288 288 289 288 288 286 286 289 286 286 286 287 289
295 296 295 295 295 294 293 292 292 291 290 289 288 287 287 286 285 285 285 285 283 283 283 283 283 283 283 283 285 285 286 285 285 285 286 285 284 283 282 283 281 280 281 281
294 295 293 293 292 291 291 291 289 288 288 287 286 285 285 286 284 285 285 284 284 282 282 282 282 282 283 283 283 284 284 284 284 283 283 282 282 281 280 279 279 279 279 279
292 291 290 290 289 289 289 288 287 285 285 284 283 284 283 284 284 284 283 283 283 283 283 283 282 282 282 283 282 282 282 282 283 282 281 280 280 279 279 279 279 279 279 280
289 288 287 287 286 285 285 285 283 283 282 282 282 283 282 282 282 283 283 283 283 283 283 283 282 282 282 282 282 281 281 281 281 281 281 281 280 280 280 279 279 279 279 281
286 286 285 284 283 283 282 281 280 280 280 281 282 282 282 282 282 282 283 283 283 283 282 282 283 282 282 281 281 281 281 281 281 281 281 280 281 281 281 280 280 279 279 280
285 284 283 282 281 281 280 279 278 278 279 280 281 281 281 282 282 282 283 283 282 281 282 282 282 283 282 281 282 282 281 281 281 281 281 281 280 280 279 279 279 279 279 279
283 282 282 281 281 279 279 279 278 277 278 278 279 280 280 281 281 282 283 281 281 280 282 284 284 283 283 283 282 282 281 281 281 281 280 280 279 279 279 279 278 278 277 277
283 282 280 281 280 279 278 278 278 277 278 277 278 279 280 281 281 281 281 280 279 280 282 283 283 282 281 282 282 282 282 282 281 280 280 279 279 279 279 279 278 277 276 276
282 281 280 279 279 279 279 279 278 277 277 277 277 278 279 279 279 280 279 280 279 280 281 281 280 279 280 280 280 281 281 280 280 280 279 278 278 277 276 276 275 275 275 275
281 280 280 280 279 280 279 279 278 278 277 278 277 277 278 278 278 278 277 277 279 279 279 279 278 278 278 278 278 278 278 278 277 277 277 276 276 276 275 275 275 275 275 275
280 281 281 280 279 279 278 278 278 278 277 278 277 277 277 277 277 277 276 276 276 276 277 276 276 277 277 276 277 277 276 276 276 276 275 275 275 275 274 274 274 275 274 274
280 280 280 280 279 278 277 276 277 277 276 277 277 276 276 276 276 276 276 275 275 275 275 275 275 275 275 275 275 275 275 275 275 275 274 274 274 274 274 274 274 274 274 275
281 280 279 279 278 277 276 276 276 276 275 276 276 276 276 275 275 275 275 275 274 274 274 274 274 274 274 273 274 274 274 273 273 273 273 274 274 273 274 274 274 274 274 273
Wind_Speed
19 20 21 17 16 16 12 11 11 15 13 8 4 7 24 34 3 4 8 12 12 15 8 10 11 12 16 20 24 28 22 20 17 19 19 21 25 29 30 26 24 25 22 19
13 21 17 17 19 18 17 14 14 12 15 17 15 5 12 14 9 10 11 13 11 11 12 13 16 18 19 23 27 25 25 20 20 16 18 19 22 29 26 24 24 25 27 26
9 15 20 15 13 16 15 13 12 9 11 15 11 8 18 22 20 18 19 13 8 8 9 11 15 16 22 26 25 25 24 20 20 17 17 21 22 29 26 26 25 26 25 23
10 11 11 6 12 18 11 5 11 10 12 13 19 20 18 20 20 21 18 15 13 12 12 12 14 20 25 23 24 24 24 23 18 18 15 20 23 27 29 28 28 25 23 24
4 8 13 11 11 13 13 11 16 16 21 24 25 20 12 17 15 15 16 15 14 14 12 11 14 20 22 22 23 24 24 25 21 20 15 23 22 38 33 31 28 24 22 20
7 5 4 12 23 28 16 6 18 18 14 15 18 6 4 16 14 13 13 14 15 15 13 14 18 21 23 22 24 25 26 25 23 20 16 25 20 38 34 30 30 27 25 21
4 5 5 18 23 23 4 8 19 17 10 6 4 4 7 11 14 14 15 17 17 17 17 18 21 24 23 22 23 25 25 25 21 20 20 17 20 37 37 33 33 30 27 24
5 6 5 26 10 8 10 17 17 16 17 15 13 13 13 15 17 18 19 19 18 18 17 17 20 24 24 23 24 23 22 21 19 18 19 20 23 37 38 36 36 32 30 27
5 3 4 8 7 15 16 17 22 21 20 18 17 18 17 17 17 17 17 18 18 17 16 16 20 22 25 24 24 21 19 18 17 15 16 19 28 41 38 39 39 36 33 30
10 5 14 8 21 20 20 21 20 19 17 17 15 15 14 14 14 16 17 18 19 18 17 18 19 21 23 23 20 17 16 14 12 12 13 16 28 28 38 40 43 40 37 35
6 6 16 15 18 19 18 16 16 15 15 15 14 14 15 13 14 16 17 18 18 18 18 19 20 21 21 20 17 14 11 9 6 4 6 9 20 26 33 43 43 41 40 37
3 11 9 11 17 17 18 19 14 16 16 15 15 14 14 13 14 16 17 18 19 19 19 20 20 20 20 19 16 13 9 6 2 3 8 9 14 18 14 32 39 40 40 39
4 14 9 13 13 15 16 18 13 14 14 13 13 13 13 12 15 16 17 16 20 21 20 19 19 21 20 18 15 11 7 6 3 5 12 17 20 21 23 18 18 21 26 30
8 10 10 14 14 14 14 14 12 13 13 14 14 14 14 14 16 18 19 16 17 20 19 18 18 19 22 18 13 9 8 7 8 10 14 19 24 27 30 31 36 34 25 28
10 8 10 10 11 13 13 15 14 15 15 16 15 15 16 16 16 17 17 18 15 18 20 20 18 19 19 19 14 11 10 13 14 15 18 22 26 31 36 39 44 47 44 41
10 8 11 11 13 14 15 15 15 15 16 16 16 16 14 12 14 14 16 20 21 21 20 20 19 17 16 16 14 13 13 15 19 22 24 27 30 35 40 42 43 43 42 39
9 11 13 13 14 14 14 14 14 14 14 15 15 15 13 10 10 12 14 17 19 18 18 18 17 15 13 13 15 13 13 16 17 21 26 27 30 34 36 36 36 38 36 35
8 8 9 10 12 13 13 13 13 13 14 14 13 13 12 10 10 11 11 9 11 14 18 18 16 15 15 13 11 13 13 15 17 21 23 27 32 35 36 36 36 35 31 30
8 9 10 11 12 12 12 13 14 13 14 14 10 11 12 10 8 10 13 10 9 12 15 17 16 16 16 14 14 14 15 17 18 20 24 27 30 30 30 31 31 31 28 27
7 8 9 11 13 14 14 14 14 13 13 13 7 9 7 10 7 5 8 13 10 10 9 9 12 14 14 14 13 15 17 18 19 21 23 24 25 26 26 27 26 25 23 22
7 8 11 15 16 15 18 16 16 15 13 12 11 8 7 10 9 5 5 7 7 6 6 6 8 11 12 12 14 14 15 16 17 19 20 22 23 23 23 22 23 22 21 20
9 12 15 18 17 15 16 16 21 14 14 11 8 5 8 5 8 11 8 5 7 5 5 4 7 10 9 9 9 10 12 14 16 17 18 18 19 19 19 18 18 18 18 17
9 10 11 15 16 13 11 16 19 15 17 9 15 6 7 7 10 3 7 8 5 5 4 5 8 7 8 8 8 9 10 11 12 14 14 14 15 15 16 16 16 16 16 16
10 11 10 10 15 10 12 13 15 10 15 10 13 12 6 6 5 7 7 7 6 5 3 6 7 6 7 8 9 9 10 10 11 12 12 12 13 13 14 14 15 15 15 15
11 11 7 13 11 11 12 12 11 11 10 9 10 9 10 7 4 4 4 6 8 8 7 9 9 8 8 9 9 9 9 10 10 10 11 12 13 13 12 13 13 13 13 13
10 7 8 10 8 10 11 10 9 10 10 9 10 8 8 7 8 9 7 5 2 2 4 6 7 6 7 8 9 10 11 11 10 11 11 11 11 11 11 11 11 11 10 10
8 5 8 7 9 10 11 9 9 9 9 4 7 8 8 9 8 6 5 5 4 5 6 7 8 8 9 9 10 10 11 12 11 10 10 10 10 11 11 10 9 9 9 10
Wind_Direction
273 296 299 297 292 284 259 261 275 297 314 272 257 242 237 251 35 308 312 327 322 305 29 12 357 341 333 320 313 311 307 315 317 265 263 246 241 228 224 218 220 218 219 212
270 275 305 302 304 289 274 251 259 282 291 292 225 260 274 315 354 350 328 308 305 9 8 357 352 342 318 300 298 308 305 308 319 288 258 256 244 215 214 218 218 220 226 228
300 316 317 300 310 311 271 281 294 305 280 283 299 0 14 1 350 328 301 343 29 20 18 2 348 311 300 301 309 308 309 301 312 302 261 259 248 215 221 217 218 220 220 224
285 297 280 277 308 321 310 247 274 264 290 8 17 3 10 35 26 19 20 16 12 4 1 344 321 295 297 308 310 308 305 298 306 308 260 251 242 217 216 209 206 215 212 215
263 266 280 301 9 338 342 330 22 5 17 6 351 339 65 23 20 12 2 356 353 355 350 328 313 307 316 316 307 310 307 302 290 301 273 243 246 215 209 204 210 210 208 203
255 273 278 19 337 314 307 277 4 14 24 6 342 331 1 1 2 6 6 353 351 347 344 339 329 323 323 317 315 312 312 306 291 303 289 256 283 201 205 209 208 204 201 199
249 256 99 352 337 324 304 0 348 17 6 19 15 328 329 7 2 359 0 351 351 351 348 344 332 328 325 320 315 316 314 306 292 293 280 279 268 206 204 204 203 198 196 191
347 6 8 5 13 30 319 334 10 8 14 26 30 27 19 14 9 5 1 357 353 350 345 341 334 328 328 324 320 322 318 310 294 300 295 266 252 198 198 199 197 194 188 184
358 45 344 25 14 353 1 4 3 8 16 19 20 13 12 7 5 1 358 353 351 348 344 342 337 334 329 328 327 330 325 318 306 313 303 233 215 196 197 194 195 188 184 180
315 42 357 35 15 14 15 13 12 24 25 22 20 12 6 4 0 359 353 351 349 347 345 340 338 335 331 331 331 334 327 321 325 323 311 252 210 195 197 198 188 186 184 180
287 15 342 12 8 12 7 11 16 18 20 23 16 12 7 2 359 356 350 352 351 350 348 344 342 338 339 340 339 340 331 316 316 324 305 253 211 194 182 190 189 192 190 188
320 346 315 323 357 5 3 7 13 13 13 15 16 11 4 2 355 352 352 354 356 355 354 352 351 350 352 354 353 348 346 340 347 101 128 149 192 181 172 178 186 183 183 184
308 330 339 354 357 3 3 5 15 19 13 12 13 10 6 4 359 358 3 8 358 360 359 1 5 4 4 5 0 8 25 32 78 117 117 121 124 154 125 115 149 162 167 168
340 345 347 355 359 3 4 4 7 14 12 13 9 7 6 4 359 5 8 12 2 3 6 11 14 16 10 10 14 28 57 71 94 109 116 120 122 121 130 124 120 116 127 132
349 347 356 350 2 4 5 6 8 7 4 4 1 3 358 359 2 4 8 11 14 13 17 19 24 26 20 18 33 50 74 91 97 108 114 119 121 119 115 117 114 115 119 118
351 11 5 9 6 5 6 6 6 0 357 353 355 357 358 357 353 4 10 15 17 18 18 23 25 32 33 24 37 64 86 105 110 111 118 124 125 123 120 116 113 117 117 121
17 12 7 8 6 4 5 4 3 355 350 351 350 352 355 4 352 4 16 7 8 19 24 29 27 30 41 51 44 63 90 105 113 116 116 118 117 115 114 109 111 115 123 128
38 29 17 10 1 359 359 0 354 353 345 342 347 349 352 357 359 359 6 12 6 22 32 31 36 39 48 47 68 72 87 99 107 113 121 124 124 125 123 121 120 119 120 127
35 25 15 12 2 358 354 351 350 345 335 343 350 349 341 347 3 10 10 5 22 33 37 34 39 50 54 66 68 85 94 99 105 114 120 124 126 125 125 126 125 125 126 126
26 13 358 357 353 354 348 348 350 345 346 347 350 332 328 342 353 15 336 356 25 29 30 48 46 56 61 67 82 94 102 107 112 117 122 123 123 124 125 124 121 121 123 125
359 356 349 352 353 354 344 351 350 348 352 350 352 356 6 12 8 348 57 351 8 21 17 45 61 63 64 76 84 95 102 107 109 114 119 120 121 121 122 123 123 123 123 126
346 349 346 345 350 356 359 346 351 348 353 349 344 344 16 20 351 341 355 8 351 356 8 60 86 84 76 83 92 99 105 110 111 114 116 119 121 123 122 125 125 128 131 133
331 336 336 340 4 359 357 344 352 353 0 11 358 357 28 347 348 282 311 333 330 351 17 78 97 94 94 98 99 109 112 117 119 121 120 122 122 123 126 127 129 132 133 135
324 339 355 345 354 356 345 342 353 350 3 13 354 1 349 20 356 356 356 359 357 3 34 98 94 89 106 111 109 111 113 116 120 123 128 131 129 130 129 132 135 136 138 138
346 355 352 339 357 355 352 346 359 354 358 358 359 355 358 357 307 337 16 39 35 34 62 87 101 102 102 105 113 117 115 116 121 123 123 125 129 134 135 136 138 138 138 142
356 2 2 350 8 356 352 359 4 2 9 11 359 9 8 16 26 30 39 50 56 88 94 89 78 84 111 121 118 120 125 124 120 121 127 131 134 137 137 137 140 145 149 143
5 359 5 4 353 354 359 4 4 3 348 39 15 13 23 25 35 48 55 69 62 94 104 110 109 104 105 106 117 122 128 125 125 129 134 138 138 140 146 152 153 142 143 147